Volver al catálogo

STARLINK-38066

ActivoComunicacionesSSO
NORAD 69758·PAYLOAD·🇺🇸 United States

Lanzado Jul 2, 2026 desde Vandenberg Space Force Base

Loading…

Próximos Pases (próximas 24 horas)

TLE

ActualizadoSource: CelesTrak SupGP

Época: Sep 14, 2026, 23:26 UTC

1 69758C 26150V   26257.97687500  .00079328  00000+0  24626-2 0  2570
2 69758  97.2849  96.9386 0001700  97.9874   7.4195 15.33397774    15

Sigue STARLINK-38066 en tiempo real con AllMySat

Download on the App Store